This is the latest recevied weather packets stored in our database for station/object SP1BMW-13. If no packets are shown the sender has not sent any weather packets the latest 10 day(s).
| Time | Temp. | Humidity | Pressure | Rain* | Wind** | Luminosity | Snow |
|---|---|---|---|---|---|---|---|
| 1777532161 | 10° C | 54% | 1030.9 hPa | 0 mm | 0.45 m/s, 227° | 238 W/m² | - |
| 1777532100 | 10° C | 54% | 1031 hPa | 0 mm | 0.45 m/s, 250° | 251 W/m² | - |
| 1777532040 | 10° C | 55% | 1031 hPa | 0 mm | 0.45 m/s, 222° | 253 W/m² | - |
| 1777531981 | 10° C | 55% | 1031 hPa | 0 mm | 0.45 m/s, 243° | 254 W/m² | - |
| 1777531921 | 9.44° C | 55% | 1031.1 hPa | 0 mm | 0.45 m/s, 272° | 250 W/m² | - |
| 1777531861 | 9.44° C | 56% | 1031 hPa | 0 mm | 0 m/s | 263 W/m² | - |
| 1777531800 | 9.44° C | 55% | 1031.1 hPa | 0 mm | 0.45 m/s, 219° | 253 W/m² | - |
| 1777531740 | 9.44° C | 57% | 1031.3 hPa | 0 mm | 0 m/s | 241 W/m² | - |
| 1777531681 | 9.44° C | 56% | 1031.1 hPa | 0 mm | 0 m/s | 225 W/m² | - |
| 1777531621 | 9.44° C | 55% | 1031.1 hPa | 0 mm | 0.89 m/s, 284° | 213 W/m² | - |
| 1777531560 | 8.89° C | 56% | 1031.1 hPa | 0 mm | 0.45 m/s, 271° | 209 W/m² | - |
| 1777531501 | 8.89° C | 57% | 1031.1 hPa | 0 mm | 0.89 m/s, 292° | 202 W/m² | - |
| 1777531440 | 8.89° C | 58% | 1031.2 hPa | 0 mm | 0.45 m/s, 309° | 197 W/m² | - |
| 1777531380 | 8.89° C | 59% | 1031.2 hPa | 0 mm | 0.89 m/s, 263° | 193 W/m² | - |
| 1777531320 | 8.89° C | 61% | 1031 hPa | 0 mm | 0.45 m/s, 317° | 191 W/m² | - |
| 1777531260 | 8.33° C | 60% | 1031.2 hPa | 0 mm | 0 m/s | 191 W/m² | - |
| 1777531200 | 8.33° C | 60% | 1031.1 hPa | 0 mm | 0.45 m/s, 257° | 190 W/m² | - |
| 1777531141 | 8.33° C | 61% | 1031.2 hPa | 0 mm | 0.45 m/s, 263° | 187 W/m² | - |
| 1777531080 | 8.33° C | 61% | 1031.3 hPa | 0 mm | 0 m/s | 186 W/m² | - |
| 1777531020 | 8.33° C | 61% | 1031.2 hPa | 0 mm | 0.45 m/s, 224° | 186 W/m² | - |
| 1777530960 | 8.33° C | 62% | 1031 hPa | 0 mm | 0.45 m/s, 191° | 184 W/m² | - |
| 1777530900 | 7.78° C | 63% | 1031.2 hPa | 0 mm | 0 m/s | 183 W/m² | - |
| 1777530840 | 7.78° C | 63% | 1031.1 hPa | 0 mm | 0.89 m/s, 157° | 180 W/m² | - |
| 1777530780 | 7.78° C | 65% | 1031.3 hPa | 0 mm | 0.45 m/s, 273° | 177 W/m² | - |
| 1777530721 | 7.78° C | 64% | 1031.3 hPa | 0 mm | 0 m/s | 173 W/m² | - |
* Rain latest hour (hover to see other rain measurements)
** Current wind speed in m/s (hover to see current wind gust speed)